Wind_Speed
38 38 39 39 40 40 41 42 44 45 46 47 48 49 50 51 52 53 54 56 57 58 60 61 62 63 63 64 64 65 66 68 68 66 68 70 71 72 72 72 73 75 76
39 39 39 40 40 41 42 43 44 46 47 48 49 50 52 53 54 55 57 58 59 60 61 62 63 64 64 65 66 67 68 70 71 70 69 70 70 71 71 72 73 75 75
39 39 40 40 41 42 43 44 45 47 48 49 50 52 53 54 56 57 59 60 61 62 63 64 65 66 66 67 68 69 70 71 72 72 70 69 69 70 71 72 73 73 74
39 40 40 41 42 43 44 45 46 47 49 50 52 53 55 56 58 59 60 61 62 63 64 66 67 67 68 69 70 71 72 72 73 72 71 69 69 71 72 72 72 72 72
40 41 41 42 43 44 45 46 47 48 50 51 53 54 56 58 60 61 62 63 64 65 66 67 68 69 70 71 72 72 73 73 73 72 71 70 70 71 71 71 71 69 67
41 42 43 43 44 45 46 47 48 50 51 52 54 55 57 59 61 62 64 65 66 66 67 68 69 70 71 72 73 74 74 74 73 72 72 71 70 70 70 70 69 66 62
43 43 43 44 45 46 47 48 50 51 52 53 55 57 59 61 62 64 65 66 66 67 69 70 71 72 73 74 75 74 73 73 73 72 71 70 70 69 69 67 64 61 57
43 44 45 45 46 47 48 49 51 52 53 55 57 59 61 62 63 65 66 67 68 69 71 73 74 74 75 76 76 74 72 71 70 71 71 70 69 67 65 62 59 55 51
44 45 45 46 47 48 49 51 52 54 55 57 59 61 62 63 64 66 67 68 69 71 73 74 75 76 76 77 76 73 70 68 69 70 69 67 65 62 59 56 53 50 47
45 46 46 48 49 49 50 52 53 55 56 58 60 61 62 63 65 67 68 70 72 73 73 74 75 76 75 74 72 70 68 67 67 66 65 62 58 55 54 52 49 46 43
46 47 48 49 49 50 52 53 55 56 58 60 61 61 63 64 66 68 70 72 73 73 74 74 74 74 73 71 69 68 67 66 65 62 59 55 52 50 49 47 45 42 39
46 47 48 49 50 52 53 55 56 58 60 61 62 62 63 65 67 69 71 72 73 74 74 74 73 71 69 67 66 65 64 63 61 57 52 50 48 46 45 43 40 38 36
48 48 49 50 51 53 55 56 58 60 61 62 63 63 64 65 67 69 71 72 73 74 74 72 70 68 66 64 63 62 61 58 54 51 48 46 45 43 41 38 35 34 32
49 49 50 51 53 55 56 58 59 60 62 63 64 64 65 66 68 70 71 72 72 73 72 69 66 64 62 61 59 57 55 51 49 46 45 43 42 39 36 34 32 31 29
49 50 51 53 55 56 57 59 60 61 63 64 65 66 67 68 69 70 71 71 71 71 69 65 62 60 58 57 54 52 49 47 45 43 42 40 37 35 33 31 30 29 27
50 52 53 55 56 57 59 60 61 63 64 65 67 68 69 69 69 69 70 70 70 68 65 61 59 57 55 53 50 48 46 44 42 40 38 36 34 32 30 29 29 27 26
52 53 55 56 58 59 61 62 62 63 65 66 68 69 69 68 69 69 69 68 66 64 61 58 57 55 52 50 47 45 44 42 39 37 35 33 31 30 28 28 26 25 24
54 55 57 58 60 61 63 64 65 65 66 66 67 68 68 68 69 68 67 65 62 60 58 57 55 53 50 47 45 43 41 39 37 34 33 31 30 28 27 26 24 23 22
56 57 59 60 62 63 64 65 66 67 68 67 67 66 67 67 67 65 64 62 60 58 57 55 53 50 47 45 43 41 38 36 34 33 31 30 29 27 26 24 23 21 20
57 59 61 62 63 65 66 67 67 68 68 67 67 66 66 65 64 63 62 61 60 58 55 52 50 48 45 43 40 38 36 34 33 32 31 29 27 26 25 23 22 20 19
59 61 62 63 65 66 67 67 68 68 67 67 66 66 65 64 63 62 60 59 58 56 53 50 47 45 42 40 38 36 34 33 32 30 29 28 26 25 24 22 20 20 19
61 62 63 65 67 67 67 67 67 67 67 66 65 64 63 63 62 61 58 57 55 52 50 47 44 42 40 38 36 34 32 31 30 29 28 27 25 24 23 21 20 19 18
62 64 65 67 67 66 66 67 67 66 65 64 63 63 62 62 60 57 55 53 51 48 45 43 41 39 38 36 35 33 31 30 29 28 27 26 24 23 22 21 20 19 17
64 66 67 66 66 66 66 66 65 64 63 63 62 62 60 58 56 54 52 49 46 44 42 40 38 37 36 35 33 32 31 30 29 28 27 25 24 23 22 20 19 18 17
65 67 66 65 65 65 65 64 63 62 62 61 61 59 56 54 52 50 47 45 43 41 39 38 37 36 35 34 33 32 31 30 29 27 26 24 22 21 20 19 19 18 18
66 66 65 65 65 64 63 62 61 60 59 58 57 54 52 50 48 46 44 43 41 39 38 37 37 36 35 34 33 32 30 29 27 25 24 22 21 20 19 19 18 18 18
Wind_Direction
290 290 290 291 291 291 292 292 293 294 295 296 297 298 299 300 300 300 301 301 302 303 303 302 302 302 302 301 301 301 300 300 299 299 298 297 296 296 295 294 293 293 292
290 290 290 290 291 291 292 293 293 295 295 296 297 298 299 300 300 301 302 302 303 303 303 303 303 303 302 301 301 301 301 301 300 300 300 299 298 297 296 296 295 294 294
291 290 290 290 291 292 292 293 294 295 296 296 297 299 299 300 301 302 303 303 303 304 304 304 303 303 302 302 302 302 302 301 301 301 301 299 299 298 298 297 297 296 296
292 291 291 291 291 292 293 294 295 296 297 297 298 299 300 300 301 302 303 303 303 303 304 304 304 303 303 303 303 303 302 302 302 301 301 300 300 299 299 298 298 297 297
292 292 292 292 292 293 294 294 295 296 297 298 299 299 300 301 302 302 302 302 303 303 304 304 304 304 303 303 304 303 303 303 302 302 301 301 301 300 299 299 299 298 298
293 293 292 293 293 294 295 295 296 297 297 298 299 300 300 301 301 302 302 303 303 303 304 304 304 304 304 304 304 304 304 303 302 302 302 302 302 301 300 300 300 299 298
293 293 293 294 294 295 295 296 297 297 298 299 300 300 301 301 302 302 302 303 304 304 304 305 304 304 304 304 304 304 304 303 303 303 303 303 302 302 301 301 300 299 299
294 294 295 295 295 295 296 297 297 298 299 300 301 301 302 302 302 302 303 303 304 305 305 305 305 304 304 304 304 304 303 303 302 303 303 303 303 302 301 301 300 300 299
295 295 295 295 296 296 297 298 299 300 300 301 302 302 303 302 302 303 303 304 305 305 305 305 305 305 305 304 304 303 303 302 302 303 303 303 303 302 302 301 301 300 299
296 296 296 297 297 298 299 300 300 301 302 302 303 303 303 303 303 304 304 305 305 306 306 306 306 305 305 304 304 304 303 303 303 303 303 302 302 301 301 301 301 300 300
296 297 298 298 299 299 300 301 301 302 303 304 304 304 304 305 305 305 305 306 306 307 307 307 307 306 305 304 304 304 304 304 304 303 303 302 301 300 300 300 300 299 300
297 298 299 299 299 300 301 302 302 303 304 305 305 305 305 306 306 306 307 307 307 308 308 308 307 306 305 305 305 305 304 304 304 304 303 302 301 300 300 299 298 298 298
298 298 299 300 300 301 302 303 304 305 305 305 306 306 306 307 307 308 308 308 308 309 309 309 308 307 306 306 305 305 305 304 304 303 303 302 301 301 300 298 296 296 297
298 299 300 300 301 302 303 304 305 305 306 306 306 307 307 308 308 308 309 309 310 310 310 310 309 308 307 307 306 306 305 304 304 303 302 302 301 301 299 296 296 295 295
299 300 301 302 302 303 304 305 306 306 307 307 308 308 308 309 309 309 310 311 311 311 311 311 310 309 308 308 307 307 306 304 304 303 302 302 301 300 298 296 296 295 294
300 301 302 302 303 304 305 306 306 307 308 308 309 309 309 310 310 311 312 312 312 312 312 311 311 311 310 309 308 307 306 305 304 303 302 301 300 299 297 296 295 294 293
301 301 302 303 304 305 305 306 307 308 308 309 309 309 310 310 311 312 312 312 313 312 312 312 312 311 310 309 308 307 306 305 304 302 301 300 300 298 297 296 295 292 292
301 302 303 304 304 305 306 307 308 308 309 309 310 310 310 311 311 312 312 312 313 312 312 312 311 311 310 309 308 307 306 305 303 302 300 299 299 298 296 295 293 292 291
302 302 303 304 305 306 307 308 309 309 310 310 310 310 310 311 312 312 312 312 312 312 312 311 311 311 309 308 307 306 304 303 302 300 299 298 297 296 295 294 291 290 289
302 303 304 305 306 307 308 309 309 310 311 311 311 311 311 312 312 312 312 312 312 312 311 311 310 310 309 308 306 305 303 302 300 298 297 296 295 293 293 291 288 287 286
303 304 305 306 307 308 308 309 310 310 311 311 312 312 312 312 312 312 312 312 312 312 311 310 310 309 308 307 306 304 302 301 299 297 296 294 292 290 289 287 284 283 281
304 304 305 306 307 308 308 309 310 311 311 312 312 312 312 312 312 313 312 313 313 312 310 310 309 308 307 307 306 304 302 300 299 297 295 292 289 286 285 283 280 279 276
304 305 306 307 308 308 309 310 311 311 311 312 312 312 312 313 313 313 313 314 313 312 311 310 309 308 308 307 306 304 302 300 298 297 294 291 287 284 281 279 276 273 270
305 306 307 307 308 308 309 310 311 311 311 312 312 313 313 313 313 313 314 314 314 314 312 311 310 309 308 307 305 304 302 299 298 296 293 289 284 280 276 274 271 267 264
305 306 307 307 308 309 309 310 311 311 312 312 313 313 313 314 314 314 314 315 315 314 313 312 310 309 308 306 305 303 301 298 296 294 291 287 282 277 272 269 266 263 260
306 307 307 308 309 309 310 311 311 312 312 313 314 314 314 314 315 314 315 315 315 314 313 312 311 309 307 305 304 302 300 297 294 291 288 283 278 273 270 267 264 260 257
Height
5729 5727 5724 5721 5718 5716 5712 5709 5705 5702 5698 5693 5689 5685 5680 5675 5670 5665 5660 5654 5648 5642 5635 5629 5622 5615 5608 5601 5594 5587 5580 5572 5568 5568 5560 5551 5543 5535 5528 5521 5514 5508 5502
5720 5717 5715 5712 5709 5706 5702 5699 5695 5691 5687 5682 5678 5673 5668 5663 5657 5652 5646 5640 5634 5627 5620 5613 5606 5599 5592 5584 5577 5570 5563 5554 5547 5545 5541 5531 5522 5514 5506 5500 5493 5485 5478
5711 5708 5705 5702 5699 5695 5692 5688 5684 5680 5676 5671 5666 5661 5656 5650 5644 5638 5632 5626 5619 5612 5605 5597 5590 5582 5575 5567 5560 5552 5544 5536 5528 5521 5518 5510 5502 5493 5485 5479 5471 5463 5456
5701 5698 5695 5692 5688 5685 5681 5677 5673 5669 5664 5659 5654 5649 5643 5637 5631 5624 5618 5611 5604 5597 5589 5581 5573 5565 5557 5549 5542 5534 5525 5517 5509 5501 5496 5490 5482 5473 5463 5456 5451 5443 5435
5691 5688 5685 5681 5678 5674 5670 5666 5662 5657 5652 5647 5641 5636 5629 5623 5617 5610 5603 5596 5589 5582 5573 5565 5556 5548 5539 5531 5523 5515 5506 5497 5489 5481 5475 5469 5462 5452 5443 5434 5428 5422 5415
5681 5678 5674 5670 5667 5663 5659 5654 5650 5645 5640 5634 5629 5622 5616 5609 5602 5595 5587 5580 5573 5565 5557 5549 5540 5531 5522 5513 5504 5495 5486 5476 5468 5460 5454 5447 5440 5431 5422 5413 5406 5400 5396
5670 5667 5663 5659 5655 5651 5647 5642 5638 5632 5627 5621 5615 5609 5602 5595 5587 5579 5571 5564 5557 5549 5540 5532 5523 5513 5503 5494 5486 5477 5467 5457 5447 5439 5433 5426 5418 5411 5402 5395 5387 5380 5375
5659 5656 5652 5648 5644 5639 5635 5630 5625 5619 5614 5608 5602 5595 5587 5580 5571 5563 5555 5547 5540 5532 5523 5513 5504 5494 5484 5473 5465 5458 5449 5440 5430 5421 5413 5406 5398 5390 5382 5375 5369 5364 5360
5649 5645 5641 5636 5632 5627 5623 5617 5612 5606 5600 5594 5587 5580 5572 5564 5555 5547 5538 5530 5523 5515 5505 5494 5483 5474 5465 5453 5444 5437 5430 5422 5412 5403 5395 5387 5380 5372 5364 5358 5353 5348 5345
5637 5633 5629 5624 5620 5615 5610 5604 5598 5592 5586 5579 5572 5564 5556 5548 5540 5530 5521 5513 5505 5497 5487 5477 5465 5454 5444 5433 5424 5416 5410 5403 5394 5386 5378 5371 5363 5356 5350 5343 5338 5334 5331
5626 5621 5617 5612 5607 5602 5597 5591 5585 5578 5572 5565 5557 5550 5541 5532 5523 5514 5504 5493 5484 5476 5467 5458 5447 5435 5424 5415 5406 5397 5390 5382 5376 5369 5362 5355 5349 5343 5337 5331 5326 5322 5319
5614 5609 5605 5599 5594 5589 5583 5577 5570 5563 5556 5549 5541 5534 5525 5516 5506 5496 5486 5475 5465 5455 5447 5437 5427 5417 5407 5398 5389 5380 5372 5364 5357 5351 5346 5341 5335 5330 5325 5320 5316 5312 5308
5602 5597 5592 5587 5581 5575 5569 5563 5556 5548 5540 5533 5525 5517 5509 5500 5490 5479 5469 5458 5447 5436 5427 5417 5408 5398 5389 5381 5372 5363 5355 5348 5342 5336 5332 5327 5322 5317 5313 5309 5306 5302 5300
5589 5584 5579 5573 5568 5562 5555 5548 5540 5533 5524 5517 5508 5500 5493 5484 5473 5463 5452 5441 5430 5419 5409 5400 5390 5381 5372 5364 5356 5348 5341 5334 5328 5324 5319 5314 5309 5305 5302 5299 5296 5294 5292
5576 5571 5566 5560 5554 5548 5541 5533 5525 5517 5508 5500 5491 5483 5474 5467 5456 5444 5433 5423 5412 5401 5391 5383 5374 5365 5357 5349 5342 5334 5328 5322 5316 5311 5307 5303 5298 5295 5292 5289 5287 5285 5283
5563 5558 5552 5546 5540 5533 5527 5520 5511 5502 5493 5483 5474 5464 5456 5447 5437 5427 5416 5405 5394 5384 5374 5366 5358 5350 5342 5335 5328 5322 5316 5310 5305 5300 5296 5292 5288 5285 5283 5280 5278 5276 5275
5550 5544 5538 5532 5525 5518 5511 5504 5497 5489 5479 5468 5458 5448 5438 5429 5419 5409 5399 5389 5379 5368 5359 5351 5343 5336 5328 5321 5315 5309 5304 5299 5294 5290 5286 5282 5279 5277 5275 5272 5270 5269 5267
5536 5530 5524 5517 5510 5502 5495 5487 5479 5471 5464 5455 5444 5432 5422 5412 5403 5393 5382 5373 5365 5355 5345 5337 5330 5322 5315 5309 5303 5297 5292 5287 5283 5279 5276 5273 5271 5268 5266 5264 5263 5261 5260
5522 5516 5509 5502 5494 5487 5479 5470 5462 5453 5445 5437 5428 5417 5406 5397 5387 5377 5366 5357 5349 5341 5332 5324 5316 5309 5302 5296 5291 5286 5281 5277 5273 5270 5267 5264 5262 5260 5259 5257 5256 5255 5254
5507 5500 5493 5486 5479 5471 5462 5454 5445 5436 5427 5419 5409 5400 5390 5381 5372 5362 5352 5342 5334 5326 5318 5310 5303 5296 5290 5284 5279 5274 5270 5267 5263 5260 5258 5256 5254 5252 5251 5249 5249 5248 5247
5493 5486 5478 5470 5462 5454 5445 5437 5428 5419 5410 5401 5392 5382 5372 5364 5355 5346 5337 5328 5319 5310 5303 5296 5290 5283 5277 5272 5267 5263 5260 5257 5253 5251 5249 5247 5245 5244 5243 5242 5242 5241 5241
5477 5470 5462 5454 5446 5437 5428 5420 5411 5402 5393 5384 5376 5366 5356 5347 5338 5330 5321 5312 5304 5295 5288 5282 5276 5271 5266 5261 5257 5253 5250 5247 5244 5242 5240 5238 5237 5236 5235 5235 5235 5235 5235
5461 5454 5446 5438 5429 5420 5412 5403 5394 5385 5376 5368 5359 5350 5341 5331 5322 5314 5306 5298 5290 5282 5275 5269 5264 5260 5255 5250 5246 5243 5240 5237 5235 5232 5231 5230 5229 5228 5228 5228 5228 5228 5228
5445 5437 5429 5421 5412 5404 5395 5387 5378 5369 5360 5351 5342 5333 5324 5316 5308 5300 5292 5284 5277 5270 5264 5258 5253 5249 5244 5240 5236 5233 5230 5227 5225 5223 5222 5221 5220 5220 5220 5220 5221 5221 5222
5429 5420 5412 5403 5395 5387 5379 5370 5362 5353 5344 5336 5327 5318 5309 5301 5294 5287 5280 5273 5266 5260 5254 5248 5243 5239 5234 5230 5227 5223 5220 5217 5215 5214 5212 5212 5211 5211 5212 5212 5213 5214 5215
5412 5403 5395 5387 5378 5370 5362 5354 5346 5337 5329 5321 5312 5304 5296 5289 5282 5275 5268 5262 5255 5250 5244 5238 5233 5229 5224 5220 5217 5213 5210 5208 5206 5204 5203 5203 5203 5203 5204 5205 5206 5207 5209